"Pseudo-MPEC" for CEJJME2

Created 2026 Apr 17 11:35:10 UT using Find_Orb

Click here for an explanation of pseudo-MPECs

 
 Astrometry: 
     CEJJME2*1C2026 04 16.37361315 24 06.851+07 37 23.52   ~4G9Z 20.93GVNEOCPG96
     CEJJME2 1C2026 04 16.37881815 24 06.253+07 37 16.61   ~4G9Z 20.38GVNEOCPG96
     CEJJME2 1C2026 04 16.38400915 24 05.645+07 37 08.40   ~4G9Z 20.87GVNEOCPG96
     CEJJME2 1C2026 04 16.38921715 24 05.036+07 37 00.84   ~4G9Z 21.14GVNEOCPG96
     CEJJME2 KB2026 04 16.41838015 24 01.447+07 36 17.06   ~4GB5 20.7 GXNEOCP734
     CEJJME2 1C2026 04 16.42257515 24 01.076+07 36 12.38   ~4GAK 21.26GVNEOCPV06
     CEJJME2 1C2026 04 16.42325715 24 01.008+07 36 11.38   ~4GAK 21.05GVNEOCPV06
     CEJJME2 1C2026 04 16.42393715 24 00.929+07 36 10.44   ~4GAK 21.39GVNEOCPV06
     CEJJME2 1C2026 04 16.42461915 24 00.853+07 36 09.43   ~4GAK 21.32GVNEOCPV06
     CEJJME2  C2026 04 16.42848815 24 00.355+07 36 03.36   ~4GB5 21.1 GWNEOCPH01
     CEJJME2  C2026 04 16.43172915 23 59.974+07 35 58.66   ~4GB5 21.0 GWNEOCPH01
     CEJJME2 KB2026 04 16.43422515 23 59.592+07 35 53.27   ~4GB5 21.4 GXNEOCP734
     CEJJME2  C2026 04 16.44209015 23 58.758+07 35 43.58   ~4GB5 21.2 GWNEOCPH01
     CEJJME2  C2026 04 16.44898415 23 57.951+07 35 33.46   ~4GB5 21.1 GWNEOCPH01
     CEJJME2 1C2026 04 17.08422015 22 46.355+07 20 01.30   ~4H7Z 20.9 GXNEOCP033
     CEJJME2 1C2026 04 17.08638015 22 46.096+07 19 58.09   ~4H7Z 21.2 GXNEOCP033
     CEJJME2 1C2026 04 17.08856015 22 45.836+07 19 55.20   ~4H7Z 21.2 GXNEOCP033
     CEJJME2 KC2026 04 17.25996215 22 26.80 +07 15 45.3    ~4H6o 21.3 GVNEOCPH21
     CEJJME2 KC2026 04 17.26285115 22 26.46 +07 15 41.0    ~4H6o 21.2 GVNEOCPH21
     CEJJME2 KC2026 04 17.26641415 22 26.04 +07 15 36.1    ~4H6o 21.2 GVNEOCPH21
     CEJJME2 1C2026 04 17.27658815 22 25.133+07 15 22.21   ~4H7o 21.13GVNEOCPI52
     CEJJME2 1C2026 04 17.27910015 22 24.866+07 15 18.40   ~4H7o 21.11GVNEOCPI52
     CEJJME2 1C2026 04 17.29494315 22 22.973+07 14 55.86   ~4H7o 21.21GVNEOCPI52
     CEJJME2 1C2026 04 17.29709815 22 22.717+07 14 52.15   ~4H7o 20.88GVNEOCPI52

Station data:
(033) Karl Schwarzschild Observatory, Tautenburg  (N50.980139 E11.711240)
   Germany.  Observer B. Stecklum. 1.34-m f/3 Schmidt + CCD.
(734) Farpoint Observatory, Eskridge  (N38.890239 W96.002420)  US/Kansas.
   Observer G. Hug. 0.69-m reflector + CCD.
(G96) Mt. Lemmon Survey  (N32.442729 W110.788720)  US/Arizona.  Observer E.
   J. Christensen. Measurers T. Beuden, V. F. Carvajal, D. Fay, J. B.
   Fazekas, D. C. Fuls, A. R. Gibbs, A. D. Grauer, H. Gröller, J. K. Hogan,
   R. A. Kowalski, S. M. Larson, G. J. Leonard, D. Rankin, R. L. Seaman, F.
   C. Shelly, K. W. Wierzchoś. 1.5-m reflector + 10K CCD.
(H01) Magdalena Ridge Observatory, Socorro  (N33.984833 W107.189333)  US/New
   Mexico.  Observers W. H. Ryan, E. V. Ryan. Measurer W. H. Ryan. 2.4-m
   f/8.9 reflector + CCD.
(H21) Astronomical Research Observatory, Westfield  (N39.483054 W87.968270)
   US/Illinois.  Observer R. Holmes. Measurers S. Foglia, L. Buzzi, T.
   Linder, R. Holmes. 0.40-m f/5.32 astrograph + CCD.
(I52) Steward Observatory, Mt. Lemmon Station  (N32.442570 W110.788920)
   US/Arizona. Measurers T. Beuden, V. F. Carvajal, D. Fay, J. B. Fazekas, D.
   C. Fuls, A. R. Gibbs, A. D. Grauer, H. Gröller, J. K. Hogan, R. A.
   Kowalski, S. M. Larson, G. J. Leonard, D. Rankin, R. L. Seaman, F. C.
   Shelly, K. W. Wierzchoś. 1.0-m prime focus + CCD.
(V06) Catalina Sky Survey-Kuiper  (N32.416871 W110.732550)  US/Arizona.
   Measurers T. Beuden, V. F. Carvajal, D. Fay, J. B. Fazekas, D. C. Fuls, A.
   R. Gibbs, A. D. Grauer, H. Gröller, J. K. Hogan, R. A. Kowalski, S. M.
   Larson, G. J. Leonard, D. Rankin, R. L. Seaman, F. C. Shelly, K. W.
   Wierzchoś. 1.55-m reflector + CCD.

Orbital elements:  CEJJME2
   Perihelion 2026 Jan 21.135112 +/- 62.5 TT =  3:14:33.7 (JD 2461061.635112)
Epoch 2026 Apr 17.0 TT = JDT 2461147.5   Earth MOID: 0.4973      AutoNEOCP
M  29.795203815 +/- 29              (J2000 ecliptic)
n   0.347001022 +/- 0.152           Peri.   95.830613 +/- 46
a   2.005621050 +/- 0.584           Node    55.621005 +/- 3.0
e   0.35033222 +/- 0.202            Incl.   22.144867 +/- 4.2
P   2.84036                H 20.79  G  0.15   U 11.5  SR
q 1.302987360 +/- 0.122    Q 2.708254740 +/- 1.9
From 24 observations 2026 Apr. 16-17 (22.2 hr); mean residual 0".22
Residuals in arcseconds: 
260416 G96  .37-  .02-    260416 V06  .08-  .02-    260417 033  .01-  .06+    
260416 G96  .13-  .62+    260416 H01  .01+  .03-    260417 H21  .05+  .03-    
260416 G96  .06-  .06-    260416 H01  .01+  .01-    260417 H21  .11+  .09-    
260416 G96  .02+  .06-    260416 734  .55+  .43-    260417 H21  .18+  .26+    
260416 734  .59+  .26+    260416 H01  .04+  .00     260417 I52  .42-  .08-    
260416 V06  .35-  .05-    260416 H01  .08+  .07-    260417 I52  .05+  .21-    
260416 V06  .16-  .05-    260417 033  .10+  .23-    260417 I52  .05-  .53+    
260416 V06  .15-  .01-    260417 033  .03+  .26-    260417 I52  .04-  .02-    

Ephemerides (geocentric):
Date (UTC) HH   RA             Dec           delta  r     elong  mag " sig PA
---- --------  ------------   ------------  ------ ------ -----  --- --------
2026 04 17 12  15 21 59.051   +07 09 59.41  .54590 1.4992 149.2 21.4 4.23 101
2026 04 17 13  15 21 54.272   +07 08 57.71  .54589 1.4993 149.3 21.4 5.01 106
2026 04 17 14  15 21 49.489   +07 07 55.96  .54588 1.4995 149.3 21.4 5.86 109
2026 04 17 15  15 21 44.703   +07 06 54.18  .54587 1.4997 149.4 21.4 6.77 112
2026 04 17 16  15 21 39.913   +07 05 52.34  .54586 1.4998 149.4 21.4 7.75 114
2026 04 17 17  15 21 35.119   +07 04 50.46  .54586 1.5000 149.5 21.4 8.77 116
2026 04 17 18  15 21 30.322   +07 03 48.54  .54585 1.5002 149.5 21.4 9.85 117
2026 04 17 19  15 21 25.521   +07 02 46.57  .54584 1.5003 149.6 21.3 11.0 118
2026 04 17 20  15 21 20.717   +07 01 44.56  .54584 1.5005 149.6 21.3 12.2 119
2026 04 17 21  15 21 15.909   +07 00 42.51  .54583 1.5007 149.7 21.3 13.4 120
2026 04 17 22  15 21 11.097   +06 59 40.41  .54583 1.5008 149.7 21.3 14.7 121
2026 04 17 23  15 21 06.283   +06 58 38.26  .54582 1.5010 149.8 21.3 16.0 121
2026 04 18 00  15 21 01.464   +06 57 36.08  .54582 1.5012 149.8 21.3 17.4 122
2026 04 18 01  15 20 56.642   +06 56 33.85  .54581 1.5013 149.9 21.3 18.9 122
2026 04 18 02  15 20 51.817   +06 55 31.57  .54581 1.5015 149.9 21.3 20.4 123
2026 04 18 03  15 20 46.989   +06 54 29.25  .54581 1.5017 150.0 21.3 21.9 123
2026 04 18 04  15 20 42.157   +06 53 26.89  .54580 1.5018 150.0 21.3 23.5 124
2026 04 18 05  15 20 37.321   +06 52 24.48  .54580 1.5020 150.1 21.3 25.2 124
2026 04 18 06  15 20 32.482   +06 51 22.04  .54580 1.5021 150.1 21.3 26.9 124
2026 04 18 07  15 20 27.640   +06 50 19.54  .54580 1.5023 150.2 21.3 28.6 124
2026 04 18 08  15 20 22.794   +06 49 17.01  .54579 1.5025 150.2 21.3 30.4 125
2026 04 18 09  15 20 17.946   +06 48 14.43  .54579 1.5026 150.3 21.3 32.3 125
2026 04 18 10  15 20 13.093   +06 47 11.80  .54579 1.5028 150.3 21.3 34.2 125
2026 04 18 11  15 20 08.238   +06 46 09.14  .54579 1.5030 150.4 21.3 36.1 125
2026 04 18 12  15 20 03.379   +06 45 06.43  .54579 1.5031 150.4 21.3 38.1 126
2026 04 18 13  15 19 58.517   +06 44 03.68  .54579 1.5033 150.5 21.3 40.2 126
2026 04 18 14  15 19 53.651   +06 43 00.88  .54579 1.5035 150.5 21.3 42.3 126
2026 04 18 15  15 19 48.783   +06 41 58.05  .54579 1.5036 150.6 21.3 44.5 126
2026 04 18 16  15 19 43.911   +06 40 55.17  .54579 1.5038 150.6 21.3 46.7 126
2026 04 18 17  15 19 39.036   +06 39 52.24  .54579 1.5040 150.7 21.3 48.9 126
2026 04 18 18  15 19 34.157   +06 38 49.28  .54579 1.5041 150.7 21.3 51.3 126
2026 04 18 19  15 19 29.276   +06 37 46.27  .54580 1.5043 150.8 21.3 53.6 127
2026 04 18 20  15 19 24.391   +06 36 43.22  .54580 1.5045 150.8 21.3 56.0 127
2026 04 18 21  15 19 19.503   +06 35 40.12  .54580 1.5046 150.9 21.3 58.5 127
2026 04 18 22  15 19 14.612   +06 34 36.99  .54581 1.5048 150.9 21.3 61.0 127
2026 04 18 23  15 19 09.718   +06 33 33.81  .54581 1.5050 151.0 21.3 63.6 127
2026 04 19 00  15 19 04.821   +06 32 30.59  .54581 1.5051 151.0 21.3 66.2 127
2026 04 19 01  15 18 59.920   +06 31 27.33  .54582 1.5053 151.1 21.3 68.9 127
2026 04 19 02  15 18 55.017   +06 30 24.02  .54582 1.5055 151.1 21.3 71.7 127
2026 04 19 03  15 18 50.110   +06 29 20.68  .54583 1.5056 151.2 21.3 74.4 127
2026 04 19 04  15 18 45.201   +06 28 17.29  .54583 1.5058 151.2 21.3 77.3 127
2026 04 19 05  15 18 40.288   +06 27 13.86  .54584 1.5060 151.3 21.3 80.2 127
2026 04 19 06  15 18 35.373   +06 26 10.39  .54584 1.5061 151.3 21.3 83.1 128
2026 04 19 07  15 18 30.454   +06 25 06.87  .54585 1.5063 151.4 21.3 86.1 128
2026 04 19 08  15 18 25.532   +06 24 03.32  .54586 1.5065 151.4 21.3 89.2 128
2026 04 19 09  15 18 20.608   +06 22 59.72  .54586 1.5066 151.5 21.3 92.3 128
2026 04 19 10  15 18 15.680   +06 21 56.08  .54587 1.5068 151.5 21.3 95.4 128
2026 04 19 11  15 18 10.749   +06 20 52.41  .54588 1.5070 151.6 21.3 98.6 128